Regional Weather Roundup
Issued by NWS Charleston, SC

Current Version | Previous Version | Text Only | Print | Product List | Glossary Off
Versions: 1 2 3 4 5 6 7 8 9 10 11 12 13 14 15 16 17 18 19 20 21 22 23 24 25 26 27 28 29 30 31 32 33 34 35 36 37 38 39 40 41 42 43 44 45 46 47 48 49 50
187 ASUS42 KCHS 270611 RWRCHS REGIONAL WEATHER ROUNDUP NATIONAL WEATHER SERVICE CHARLESTON SC 100 AM EST MON FEB 27 2017 NOTE: "FAIR" INDICATES FEW OR NO CLOUDS BELOW 12,000 FEET WITH NO SIGNIFICANT WEATHER AND/OR OBSTRUCTIONS TO VISIBILITY. NOT ALL STATIONS ARE QUALITY CONTROLLED. USE DATA WITH CAUTION... ESPECIALLY DEWPOINT OBSERVATIONS. SCZ027-030-031-034>040-042>050-270700- ...SOUTHEAST SOUTH CAROLINA... CITY SKY/WX TMP DP RH WIND PRES REMARKS N CHARLESTON CLEAR 44 39 82 NE3 30.32S 6HR MIN TEMP: 43; 6HR MAX TEMP: 54; WATERFRONT PRK N/A 58 48 69 VRB2 30.31R MOUNT PLEASANT LGT RAIN 43 39 87 CALM 30.33R JOHNS ISLAND FAIR 43 41 93 CALM 30.33R PINOPOLIS N/A 46 41 81 VRB2 30.25R MONCKS CORNER FAIR 37 34 87 CALM 30.32S SUMMERVILLE FAIR 39 36 87 CALM 30.33S BEAUFORT MCAS CLEAR 46 45 96 CALM 30.31S 6HR MIN TEMP: 44; 6HR MAX TEMP: 58; BEAUFORT ARPT FAIR 46 46 100 CALM 30.31R HILTON HEAD IS CLEAR 46 41 81 CALM 30.31F WALTERBORO CLEAR 37 36 93 E3 30.33S ALLENDALE FAIR 41 34 75 CALM 30.29S ...SOUTHERN MIDLANDS AND PEE DEE... CITY SKY/WX TMP DP RH WIND PRES REMARKS GEORGETOWN FAIR 36 32 87 CALM 30.34S KINGSTREE FAIR 34 32 93 CALM 30.34R ORANGEBURG CLEAR 38 33 82 CALM 30.31S 6HR MIN TEMP: 38; 6HR MAX TEMP: 53; BARNWELL FAIR 39 34 81 CALM 30.30S AIKEN FAIR 36 30 80 CALM 30.31S MANNING FAIR 34 18 51 MISG 30.32S COLUMBIA CLEAR 38 31 76 CALM 30.29S 6HR MIN TEMP: 36; 6HR MAX TEMP: 56; SUMTER CLEAR 39 29 67 CALM 30.28F 6HR MIN TEMP: 39; 6HR MAX TEMP: 54; FLORENCE CLEAR 38 31 76 CALM 30.33R 6HR MIN TEMP: 37; 6HR MAX TEMP: 50; MYRTLE BEACH CLEAR 42 38 85 CALM 30.34S N MYRTLE BEACH PTCLDY 39 38 96 CALM 30.34R 6HR MIN TEMP: 38; 6HR MAX TEMP: 51; $$ GAZ063-065-086>088-099>101-113>116-118-119-134>141-150-270700- ...SOUTHEAST GEORGIA... CITY SKY/WX TMP DP RH WIND PRES REMARKS SAVANNAH ARPT CLEAR 45 40 82 CALM 30.31S 6HR MIN TEMP: 45; 6HR MAX TEMP: 57; HUNTER AAF CLEAR 46 44 93 CALM 30.28S 6HR MIN TEMP: 45; 6HR MAX TEMP: 56; FORT STEWART CLEAR 43 39 85 CALM 30.28R 6HR MIN TEMP: 42; 6HR MAX TEMP: 56; STATESBORO CLEAR 40 40 100 CALM 30.29F SYLVANIA CLEAR N/A N/A N/A CALM 30.30F CLAXTON FAIR N/A N/A N/A CALM 30.29F ...CSRA...CENTRAL AND FAR SOUTHEAST GEORGIA... CITY SKY/WX TMP DP RH WIND PRES REMARKS THOMSON CLEAR 38 36 92 CALM 30.30F AUGUSTA-BUSH CLEAR 39 32 76 CALM 30.28F 6HR MIN TEMP: 38; 6HR MAX TEMP: 54; AUGUSTA-DANIEL CLEAR 50 25 37 E6 30.28F SWAINSBORO FAIR 48 34 57 SE3 30.28S VIDALIA CLEAR 46 39 76 SE3 30.28S EASTMAN FAIR 39 38 96 CALM 30.29R HAZLEHURST FAIR 52 41 64 SE3 30.26S ALMA PTCLDY 40 39 97 E3 30.27F 6HR MIN TEMP: 40; 6HR MAX TEMP: 53; WAYCROSS PTCLDY 45 45 99 CALM 30.28S JESUP FAIR 41 37 87 CALM 30.30R BAXLEY FAIR 43 43 100 CALM 30.27F BRUNSWICK PTCLDY 43 43 100 CALM 30.30R FOG SAINT SIMONS CLEAR 58 40 51 E7 30.28S 6HR MIN TEMP: 57; 6HR MAX TEMP: 60; $$ SCZ027-028-034-036>038-045-046-048>050-GAZ119-141-270700- ...LAKE AND SUPPLEMENTAL COASTAL OBSERVATIONS... STATION/POSITION TIME TEMP WIND PRES WAVE SWELL AIR SEA DIR/SP/G HT/PER HT/PER/DIR (UTC) (F) (DEG/KT/KT) (MB) (FT/S) (FT/S/D) WINYAH BAY 0445 42 320/ 2 1027.0 LAKE MURRAY 0520 51 100/ 3/ 6 1025.1S ACE BASIN NERRS 0445 46 CALM 1026.0 FORT PULASKI 0542 58 63 130/ 1/ 1 1026.3R SAPELO ISLAND 0500 50 CALM 1025.0 $$ ANZ835-935-AMZ111-154-330-350-352-354-370-450-454-472-270700- ...C-MAN AND BUOY OBSERVATIONS... STATION/POSITION TIME TEMP WIND PRES WAVE SWELL AIR SEA DIR/SP/G HT/PER HT/PER/DIR (UTC) (F) (DEG/KT/KT) (MB) (FT/S) (FT/S/D) BUOY 41004 0550 61 69 60/ 8/ 10 1026.6R 3/ 9 3/120/ 9 BUOY 41008 0550 62 62 90/ 10/ 12 1025.8R 2/ 9 2/ 90/ 9 FOLLY BEACH CMAN 0500 59 110/ 6/ 7 1027.0R CAPERS NEARSHORE 0508 59 61 140/ 4/ 6 1026.7R FRIPP NEARSHORE 0508 60 61 130/ 6/ 8 1026.1R STATION/POSITION TIME TEMP WIND PRES WAVE SWELL AIR SEA DIR/SP/G HT/PER HT/PER/DIR (UTC) (F) (DEG/KT/KT) (MB) (FT/S) (FT/S/D) 5E ST. MARYS GA 0530 64 N/A 2/ 9 FRYING PAN BUOY 0550 59 69 10/ 6/ 10 1027.5R 3/ 9 2/120/ 9 BUOY 41025 0550 56 71 350/ 4/ 12 1028.0R 4/ 9 3/130/ 9 CAPE LOOKOUT NC 0500 54 10/ 5/ 6 1027.0R BUOY 41002 0550 64 71 30/ 10/ 14 1026.3R 5/ 7 5/320/ 7 BUOY 41010 NOT AVBL ST AUGUSTINE FL 0600 67 65 90/ 11/ 12 1025.2S $$

USA.gov is the U.S. government's official web portal to all federal, state and local government web resources and services.